When you browse on this site, cookies collect data to enhance your experience and personalize the content and advertising you see.
Visit our Privacy Policy to learn more. By continuing to use the site, you agree to this use of cookies and data.
  • In Hungary
  • List of Countries
  • For 7 days
  • Water Temperature
  • Satellite Maps
  • Weather Map
  • News
  • Weather Widgets
  • user-avatar
    Login

    Hourly Weather Al-Hasaka

    Today, 17 December, Monday

    Time Temperature Precipitation Wind Pressure Humidity
    00:00 +12°C° 0.1 mm 2 mps 738 mmHg 59%
    01:00 +11°C° 0.8 mm 3 mps 738 mmHg 63%
    02:00 +10°C° 0.8 mm 3 mps 738 mmHg 68%
    03:00 +10°C° 0.8 mm 3 mps 737 mmHg 73%
    04:00 +8°C° 1.5 mm 4 mps 737 mmHg 76%
    05:00 +8°C° 1.5 mm 5 mps 737 mmHg 79%
    06:00 +8°C° 1.5 mm 5 mps 737 mmHg 82%
    07:00 +8°C° 1.6 mm 5 mps 736 mmHg 83%
    08:00 +8°C° 1.6 mm 5 mps 736 mmHg 83%
    09:00 +8°C° 1.6 mm 5 mps 736 mmHg 84%
    10:00 +7°C° 2.1 mm 5 mps 736 mmHg 85%
    11:00 +7°C° 2.1 mm 5 mps 736 mmHg 87%
    12:00 +7°C° 2.1 mm 5 mps 736 mmHg 88%
    13:00 +7°C° 0.5 mm 5 mps 736 mmHg 87%
    14:00 +8°C° 0.5 mm 5 mps 735 mmHg 86%
    15:00 +8°C° 0.5 mm 4 mps 735 mmHg 84%
    16:00 +8°C° 0 mm 4 mps 735 mmHg 84%
    17:00 +9°C° 0 mm 3 mps 736 mmHg 85%
    18:00 +9°C° 0 mm 3 mps 736 mmHg 85%
    19:00 +9°C° 0 mm 2 mps 736 mmHg 86%
    20:00 +9°C° 0 mm 2 mps 736 mmHg 87%
    21:00 +10°C° 0 mm 1 mps 736 mmHg 88%
    22:00 +9°C° 0 mm 1 mps 736 mmHg 88%
    23:00 +9°C° 0 mm 1 mps 737 mmHg 89%

    Tomorrow, 18 December, Tuesday

    Time Temperature Precipitation Wind Pressure Humidity
    00:00 +9°C° 0 mm 1 mps 737 mmHg 90%
    01:00 +9°C° 0 mm 1 mps 737 mmHg 90%
    02:00 +9°C° 0 mm 1 mps 737 mmHg 91%
    03:00 +8°C° 0 mm 1 mps 737 mmHg 91%
    04:00 +8°C° 0 mm 1 mps 737 mmHg 91%
    05:00 +8°C° 0 mm 1 mps 737 mmHg 91%
    06:00 +8°C° 0 mm 1 mps 737 mmHg 91%
    07:00 +9°C° 0 mm 1 mps 738 mmHg 89%
    08:00 +9°C° 0 mm 1 mps 738 mmHg 86%
    09:00 +10°C° 0 mm 1 mps 739 mmHg 83%
    10:00 +11°C° 0 mm 1 mps 739 mmHg 79%
    11:00 +12°C° 0 mm 1 mps 739 mmHg 75%
    12:00 +12°C° 0 mm 2 mps 739 mmHg 71%
    13:00 +13°C° 0 mm 2 mps 739 mmHg 69%
    14:00 +13°C° 0 mm 2 mps 738 mmHg 67%
    15:00 +14°C° 0 mm 2 mps 738 mmHg 66%
    16:00 +13°C° 0 mm 2 mps 738 mmHg 69%
    17:00 +13°C° 0 mm 2 mps 739 mmHg 72%
    18:00 +13°C° 0 mm 2 mps 739 mmHg 75%
    19:00 +12°C° 0 mm 2 mps 739 mmHg 77%
    20:00 +11°C° 0 mm 3 mps 739 mmHg 79%
    21:00 +11°C° 0 mm 3 mps 739 mmHg 81%
    22:00 +10°C° 0 mm 3 mps 739 mmHg 82%
    23:00 +10°C° 0 mm 3 mps 739 mmHg 83%

    Day after tomorrow, 19 December, Wednesday

    Time Temperature Precipitation Wind Pressure Humidity
    00:00 +10°C° 0 mm 3 mps 739 mmHg 84%
    01:00 +10°C° 0 mm 4 mps 739 mmHg 85%
    02:00 +10°C° 0 mm 4 mps 739 mmHg 86%
    03:00 +8°C° 0 mm 4 mps 739 mmHg 87%
    04:00 +8°C° 0 mm 4 mps 738 mmHg 87%
    05:00 +8°C° 0 mm 4 mps 738 mmHg 88%
    06:00 +8°C° 0 mm 4 mps 738 mmHg 89%
    07:00 +9°C° 0 mm 5 mps 738 mmHg 88%
    08:00 +9°C° 0 mm 5 mps 738 mmHg 87%
    09:00 +10°C° 0 mm 6 mps 738 mmHg 86%
    10:00 +11°C° 0 mm 6 mps 738 mmHg 82%
    11:00 +11°C° 0 mm 6 mps 737 mmHg 78%
    12:00 +12°C° 0 mm 7 mps 737 mmHg 74%
    13:00 +14°C° 0 mm 7 mps 737 mmHg 72%
    14:00 +14°C° 0 mm 7 mps 736 mmHg 69%
    15:00 +15°C° 0 mm 7 mps 735 mmHg 67%
    16:00 +14°C° 0 mm 6 mps 735 mmHg 69%
    17:00 +13°C° 0 mm 5 mps 735 mmHg 72%
    18:00 +13°C° 0 mm 5 mps 735 mmHg 75%
    19:00 +13°C° 0.1 mm 5 mps 735 mmHg 75%
    20:00 +12°C° 0.1 mm 5 mps 735 mmHg 76%
    21:00 +12°C° 0.1 mm 5 mps 735 mmHg 77%
    22:00 +12°C° 0.9 mm 5 mps 734 mmHg 80%
    23:00 +12°C° 0.9 mm 5 mps 734 mmHg 82%

    20 December, Thursday

    Time Temperature Precipitation Wind Pressure Humidity
    00:00 +10°C° 0.9 mm 5 mps 734 mmHg 85%
    01:00 +10°C° 1.2 mm 5 mps 734 mmHg 87%
    02:00 +10°C° 1.2 mm 5 mps 734 mmHg 89%
    03:00 +10°C° 1.2 mm 5 mps 733 mmHg 91%
    04:00 +11°C° 0.5 mm 4 mps 733 mmHg 91%
    05:00 +11°C° 0.5 mm 4 mps 733 mmHg 91%
    06:00 +11°C° 0.5 mm 4 mps 733 mmHg 91%
    07:00 +11°C° 0.2 mm 4 mps 734 mmHg 90%
    08:00 +11°C° 0.2 mm 4 mps 734 mmHg 89%
    09:00 +11°C° 0.2 mm 4 mps 734 mmHg 88%
    10:00 +12°C° 0 mm 3 mps 734 mmHg 85%
    11:00 +12°C° 0 mm 3 mps 735 mmHg 81%
    12:00 +13°C° 0 mm 3 mps 735 mmHg 77%
    13:00 +14°C° 0.2 mm 2 mps 734 mmHg 75%
    14:00 +14°C° 0.2 mm 2 mps 734 mmHg 73%
    15:00 +15°C° 0.2 mm 2 mps 734 mmHg 71%
    16:00 +14°C° 0.2 mm 2 mps 734 mmHg 74%
    17:00 +14°C° 0.2 mm 2 mps 735 mmHg 78%
    18:00 +13°C° 0.2 mm 2 mps 735 mmHg 81%
    19:00 +13°C° 0.2 mm 2 mps 735 mmHg 82%
    20:00 +13°C° 0.2 mm 2 mps 735 mmHg 83%
    21:00 +12°C° 0.2 mm 2 mps 736 mmHg 84%
    22:00 +12°C° 0.1 mm 2 mps 736 mmHg 85%
    23:00 +12°C° 0.1 mm 1 mps 736 mmHg 86%

    21 December, Friday

    Time Temperature Precipitation Wind Pressure Humidity
    00:00 +12°C° 0.1 mm 1 mps 736 mmHg 87%
    01:00 +11°C° 0 mm 1 mps 736 mmHg 87%
    02:00 +11°C° 0 mm 1 mps 736 mmHg 87%
    03:00 +11°C° 0 mm 1 mps 736 mmHg 87%
    04:00 +11°C° 0 mm 1 mps 736 mmHg 87%
    05:00 +11°C° 0 mm 1 mps 736 mmHg 88%
    06:00 +11°C° 0 mm 1 mps 736 mmHg 88%
    07:00 +11°C° 0 mm 1 mps 737 mmHg 86%
    08:00 +11°C° 0 mm 1 mps 737 mmHg 84%
    09:00 +12°C° 0 mm 1 mps 738 mmHg 82%
    10:00 +13°C° 0 mm 1 mps 738 mmHg 78%
    11:00 +13°C° 0 mm 1 mps 738 mmHg 74%
    12:00 +14°C° 0 mm 1 mps 738 mmHg 70%
    13:00 +15°C° 0 mm 1 mps 737 mmHg 67%
    14:00 +15°C° 0 mm 1 mps 737 mmHg 65%
    15:00 +15°C° 0 mm 2 mps 737 mmHg 62%
    16:00 +15°C° 0 mm 2 mps 737 mmHg 65%
    17:00 +14°C° 0 mm 2 mps 737 mmHg 68%
    18:00 +14°C° 0 mm 2 mps 737 mmHg 71%
    19:00 +13°C° 0 mm 2 mps 737 mmHg 72%
    20:00 +13°C° 0 mm 2 mps 737 mmHg 73%
    21:00 +13°C° 0 mm 2 mps 737 mmHg 74%
    22:00 +12°C° 0 mm 2 mps 737 mmHg 75%
    23:00 +12°C° 0 mm 2 mps 737 mmHg 76%

    22 December, Saturday

    Time Temperature Precipitation Wind Pressure Humidity
    00:00 +12°C° 0 mm 2 mps 737 mmHg 76%
    01:00 +10°C° 0 mm 2 mps 737 mmHg 77%
    02:00 +10°C° 0 mm 2 mps 737 mmHg 78%
    03:00 +11°C° 0 mm 1 mps 736 mmHg 79%
    04:00 +10°C° 0 mm 1 mps 736 mmHg 80%
    05:00 +10°C° 0 mm 1 mps 736 mmHg 80%
    06:00 +10°C° 0 mm 1 mps 736 mmHg 81%
    07:00 +10°C° 0 mm 1 mps 736 mmHg 79%
    08:00 +11°C° 0 mm 1 mps 737 mmHg 76%
    09:00 +11°C° 0 mm 1 mps 737 mmHg 73%
    10:00 +12°C° 0 mm 1 mps 737 mmHg 69%
    11:00 +13°C° 0 mm 2 mps 737 mmHg 65%
    12:00 +14°C° 0 mm 2 mps 736 mmHg 60%
    13:00 +14°C° 0 mm 2 mps 736 mmHg 58%
    14:00 +15°C° 0 mm 2 mps 736 mmHg 57%
    15:00 +15°C° 0 mm 2 mps 735 mmHg 55%
    16:00 +15°C° 0 mm 2 mps 735 mmHg 59%
    17:00 +14°C° 0 mm 2 mps 735 mmHg 62%
    18:00 +14°C° 0 mm 1 mps 735 mmHg 66%
    19:00 +13°C° 0.1 mm 1 mps 735 mmHg 68%
    20:00 +13°C° 0.1 mm 1 mps 735 mmHg 69%
    21:00 +13°C° 0.1 mm 1 mps 736 mmHg 71%
    22:00 +12°C° 0.1 mm 1 mps 735 mmHg 72%
    23:00 +12°C° 0.1 mm 1 mps 735 mmHg 74%
    Show more